Location: Plainartige
(45.6866°N, 1.7993°E)
Time: 16:42:35
(UTC+00:00)

Tiros 1 - Pass Details

Date: 03 June 2022
Orbit: 629 x 663 km, 48.4° (Epoch: 05 July)

Event Time Altitude Azimuth Distance (km) Brightness Sun altitude
Rises 02:33:22 0° 290° (WNW) 2,922 10.3 -12.7°
Reaches altitude 10° 02:35:42 10° 288° (WNW) 2,016 9.5 -12.4°
Maximum altitude 02:40:18 70° 205° (SSW) 678 7.0 -11.9°
Drops below altitude 10° 02:44:57 10° 122° (ESE) 2,028 9.8 -11.4°
Sets 02:47:17 0° 120° (ESE) 2,940 10.7 -11.1°
